User: anonymous   Login
Location: Stamford Observatory
(41.1241°N, 73.5498°W)
Time: 19:27:52
(UTC-04:00)
Language:

IRS-P3 - Orbit

View from above orbital plane
View from above orbital plane
View from above satellite
View from above satellite

Ground track
Ground track

The orbit data is extracted from the following two-line orbital elements,

1 23827U 96017A   18142.46272762 +.00000011 +00000-0 +24920-4 0  9990
2 23827 098.7596 082.4674 0004217 124.5068 235.6508 14.22550148150646
Epoch (UTC): 22 May 2018 11:06:19
Eccentricity: 0.0004217
inclination: 98.7596°
perigee height: 814 km
apogee height: 820 km
right ascension of ascending node: 82.4674°
argument of perigee: 124.5068°
revolutions per day: 14.22550148
mean anomaly at epoch: 235.6508°
orbit number at epoch: 15064

The dashed part of the orbit path shows where the satellite is in the earth's shadow,  

DLR